This demonstration page uses our WeatherBlox Daily Observations layout. Learn more.

Left ArrowRight Arrow

44.8408, -93.29828

Hourly Observations for April 13, 2017

Temp ( °F °C ) Dew Point ( °F °C ) Humidity (%) Winds ( mph kmh ) Pressure ( in mb ) Visibility ( mi km ) Precip ( " mm )
12:53 am 00:53 Cloudy 48 8.9 44 6.7 86 86 E 8 13 30.29 1026 7 11 0.00 0.00
1:53 am 01:53 Cloudy 48 8.9 44 6.7 86 86 E 7 11 30.28 1026 8 13 0.00 0.00
2:53 am 02:53 Cloudy 47 8.3 43 6.1 86 86 ENE 7 11 30.28 1025 10 16 0.00 0.00
3:12 am 03:12 Cloudy 46 8 43 6 87 87 ENE 8 13 30.27 1025 9 14 0.00 0.00
3:34 am 03:34 Cloudy 46 8 43 6 87 87 ENE 8 13 30.27 1025 9 14 0.00 0.00
3:44 am 03:44 Cloudy 46 8 43 6 87 87 ENE 7 11 30.27 1025 8 13 0.00 0.00
3:53 am 03:53 Cloudy 47 8.3 43 6.1 86 86 E 7 11 30.28 1026 8 13 0.00 0.00
4:53 am 04:53 Cloudy 46 7.8 42 5.6 86 86 NE 8 13 30.29 1026 8 13 0.00 0.00
5:24 am 05:24 Cloudy 46 8 43 6 87 87 ENE 9 15 30.27 1025 8 13 0.00 0.00
5:39 am 05:39 Cloudy 46 7.8 42 5.6 86 86 ENE 9 15 30.27 1025 8 13 0.00 0.00
5:53 am 05:53 Cloudy 46 7.8 42 5.6 86 86 ENE 9 15 30.29 1026 8 13 0.00 0.00
6:36 am 06:36 Cloudy with Mist and Fog 46 8 43 6 87 87 E 8 13 30.30 1026 6 10 0.00 0.00
6:51 am 06:51 Cloudy 46 8 43 6 87 87 ENE 8 13 30.30 1026 7 11 0.00 0.00
6:53 am 06:53 Cloudy with Mist and Fog 46 7.8 43 6.1 89 89 ENE 7 11 30.31 1026 6 10 0.00 0.00
7:53 am 07:53 Cloudy 47 8.3 43 6.1 86 86 ENE 9 15 30.32 1027 7 11 0.00 0.00
8:53 am 08:53 Cloudy 47 8.3 43 6.1 86 86 E 10 17 30.32 1027 7 11 0.00 0.00
9:53 am 09:53 Cloudy 48 8.9 43 6.1 83 83 ESE 10 17 30.32 1027 7 11 0.00 0.00
10:53 am 10:53 Cloudy 48 8.9 43 6.1 83 83 E 7 11 30.33 1027 9 14 0.00 0.00
11:15 am 11:15 Cloudy 48 8.9 43 6.1 83 83 E 6 9 30.33 1027 8 13 0.00 0.00
11:53 am 11:53 Cloudy 49 9.4 43 6.1 80 80 ENE 10 17 30.33 1027 8 13 0.00 0.00
12:53 pm 12:53 Cloudy 49 9.4 43 6.1 80 80 E 9 15 30.32 1027 8 13 0.00 0.00
1:53 pm 13:53 Cloudy 51 10.6 43 6.1 74 74 E 9 15 30.31 1026 8 13 0.00 0.00
2:53 pm 14:53 Cloudy 52 11.1 43 6.1 72 72 ENE 9 15 30.30 1026 10 16 0.00 0.00
3:53 pm 15:53 Cloudy 53 11.7 43 6.1 69 69 NE 9 15 30.28 1025 10 16 0.00 0.00
4:53 pm 16:53 Cloudy 54 12.2 43 6.1 67 67 ENE 10 17 30.27 1025 10 16 0.00 0.00
5:53 pm 17:53 Cloudy 55 12.8 44 6.7 67 67 E 14 22 30.26 1025 10 16 0.00 0.00
6:53 pm 18:53 Cloudy 53 11.7 44 6.7 72 72 ESE 15 24 30.26 1025 10 16 0.00 0.00
7:53 pm 19:53 Cloudy 53 11.7 44 6.7 72 72 E 9 15 30.26 1025 10 16 0.00 0.00
8:53 pm 20:53 Cloudy 53 11.7 44 6.7 72 72 E 12 19 30.25 1024 10 16 0.00 0.00
9:53 pm 21:53 Cloudy 53 11.7 44 6.7 72 72 E 14 22 30.24 1024 10 16 0.00 0.00
10:53 pm 22:53 Cloudy 52 11.1 43 6.1 72 72 ESE 13 20 30.22 1024 10 16 0.00 0.00
11:53 pm 23:53 Mostly Clear 51 10.6 43 6.1 74 74 ESE 15 24 30.21 1023 10 16 0.00 0.00

Powered by AerisWeather